Location: Newark
(49.8969°N, 3.3422°E)
Time: 13:39:25
(UTC+00:00)

A-11 Canister half - Pass Details

Date: 28 January 2020
Orbit: 1517 x 1683 km, 47.2° (Epoch: 24 February)

Event Time Altitude Azimuth Distance (km) Brightness Sun altitude
Exits shadow 01:59:55 21° 101° (E) 2,930 10.6 -50.3°
Drops below altitude 10° 02:02:19 10° 100° (E) 3,684 11.2 -50.0°
Sets 02:05:21 0° 99° (E) 4,674 11.9 -49.7°
